Precipitable_Water
0.86 0.79 0.71 0.60 0.59 0.60 0.61 0.62 0.61 0.58 0.56 0.54 0.53 0.52 0.43 0.35 0.30 0.29 0.28 0.28 0.28 0.28
0.71 0.63 0.57 0.57 0.58 0.60 0.62 0.61 0.60 0.58 0.56 0.53 0.52 0.52 0.42 0.33 0.28 0.29 0.30 0.29 0.28 0.28
0.59 0.56 0.56 0.56 0.57 0.58 0.61 0.62 0.61 0.58 0.57 0.56 0.53 0.46 0.36 0.30 0.31 0.31 0.29 0.29 0.29 0.29
0.56 0.55 0.55 0.56 0.58 0.61 0.62 0.61 0.60 0.59 0.58 0.55 0.49 0.43 0.36 0.33 0.31 0.29 0.29 0.29 0.28 0.25
0.55 0.55 0.57 0.59 0.60 0.61 0.60 0.61 0.61 0.60 0.57 0.53 0.46 0.41 0.34 0.30 0.30 0.29 0.29 0.27 0.25 0.23
0.56 0.57 0.59 0.59 0.60 0.60 0.61 0.61 0.60 0.59 0.56 0.50 0.43 0.34 0.31 0.30 0.31 0.30 0.28 0.26 0.24 0.23
0.57 0.58 0.58 0.59 0.60 0.60 0.61 0.61 0.60 0.58 0.53 0.45 0.35 0.30 0.30 0.31 0.31 0.30 0.27 0.25 0.24 0.22
0.57 0.58 0.58 0.59 0.60 0.61 0.61 0.60 0.60 0.55 0.46 0.35 0.30 0.29 0.32 0.33 0.30 0.27 0.25 0.23 0.22 0.23
0.58 0.58 0.59 0.60 0.61 0.61 0.61 0.60 0.54 0.46 0.33 0.30 0.30 0.31 0.32 0.30 0.27 0.25 0.23 0.22 0.23 0.23
0.59 0.59 0.60 0.60 0.60 0.61 0.58 0.52 0.43 0.32 0.31 0.30 0.30 0.30 0.29 0.27 0.26 0.24 0.24 0.23 0.22 0.22
0.61 0.60 0.60 0.60 0.59 0.56 0.51 0.38 0.32 0.31 0.30 0.31 0.28 0.27 0.25 0.25 0.25 0.25 0.24 0.22 0.22 0.21
0.61 0.60 0.60 0.57 0.53 0.47 0.35 0.33 0.30 0.31 0.31 0.27 0.25 0.24 0.23 0.25 0.25 0.23 0.22 0.22 0.23 0.22
0.61 0.58 0.54 0.51 0.39 0.35 0.32 0.30 0.32 0.30 0.27 0.25 0.22 0.22 0.24 0.26 0.24 0.22 0.21 0.22 0.20 0.21
0.54 0.51 0.43 0.38 0.33 0.30 0.32 0.31 0.28 0.26 0.25 0.23 0.22 0.22 0.23 0.24 0.23 0.21 0.21 0.18 0.19 0.20
Wind_Speed
20 19 18 17 17 17 18 20 21 23 25 27 29 30 32 34 35 37 38 39 41 42
19 19 18 17 17 18 19 21 23 25 27 29 31 33 34 36 37 38 40 41 42 43
19 19 18 18 18 19 20 22 24 26 28 31 33 35 36 37 39 40 41 42 44 45
19 19 18 18 19 20 22 24 26 28 30 32 35 36 38 39 40 41 42 44 46 47
19 19 18 19 20 21 23 25 27 30 32 34 36 38 39 39 41 43 44 45 47 48
19 19 19 19 21 22 24 27 29 32 34 36 37 38 39 41 43 44 45 46 48 50
19 19 19 20 22 24 26 28 31 33 35 36 37 39 40 42 43 44 45 47 50 52
19 19 20 21 23 25 28 30 32 34 35 36 38 40 42 43 44 45 47 49 51 53
19 20 21 22 24 26 29 31 32 34 36 37 40 42 43 44 45 47 49 51 53 55
19 20 22 23 25 27 29 31 33 34 37 39 41 42 43 45 46 48 51 53 55 58
19 20 22 23 25 27 29 31 33 36 38 39 41 43 45 46 48 50 52 54 57 59
19 20 21 23 25 27 30 32 34 36 38 40 41 44 46 48 49 51 54 56 57 59
18 20 21 23 25 28 30 33 35 36 38 41 42 45 47 49 51 53 56 57 59 59
18 19 21 24 26 29 31 33 35 37 39 41 44 46 48 51 52 55 57 59 58 56
Wind_Direction
227 229 231 236 246 258 269 279 288 295 300 304 305 307 308 307 307 307 308 308 307 307
225 226 232 242 253 263 274 283 291 297 301 304 306 307 308 308 308 308 308 308 308 307
224 230 238 247 258 268 278 287 293 298 302 305 306 307 308 309 309 309 309 309 309 308
227 234 243 252 263 273 282 290 295 300 303 305 307 308 309 309 309 309 309 309 309 309
230 238 247 258 268 278 285 292 297 301 304 306 308 308 309 310 310 310 310 310 311 310
234 243 253 263 273 281 288 294 299 302 305 307 308 309 310 310 311 311 311 312 312 312
239 249 259 268 277 285 291 296 300 303 306 307 309 310 310 311 312 312 313 313 313 313
244 254 264 273 281 288 293 298 302 304 307 308 309 311 311 312 312 313 314 314 314 314
250 261 270 277 285 291 296 300 303 305 308 309 311 312 313 313 313 314 315 315 315 315
257 266 275 282 288 293 298 301 304 307 309 311 312 313 314 314 314 315 315 316 316 316
264 272 279 285 291 296 299 303 306 308 310 312 313 314 315 315 315 316 316 317 317 317
269 276 283 289 294 298 302 305 308 310 312 313 314 315 316 316 316 317 317 318 318 318
274 281 287 292 297 301 304 307 310 312 313 314 315 317 317 318 318 318 319 320 320 319
280 286 292 297 301 304 307 310 312 313 315 316 317 318 319 319 320 320 320 320 320 320